Location: Tucson
(32.2217°N, 110.9265°W)
Time: 10:27:29
(UTC-07:00)

Envisat - Pass Details

Date: 06 October 2021
Orbit: 764 x 766 km, 98.2° (Epoch: 22 October)

Event Time Altitude Azimuth Distance (km) Brightness Sun altitude
Rises 05:11:52 0° 16° (NNE) 3,231 6.5 -15.5°
Reaches altitude 10° 05:14:12 10° 20° (NNE) 2,301 5.8 -15.0°
Maximum altitude 05:19:13 62° 101° (E) 856 3.5 -13.9°
Drops below altitude 10° 05:24:13 10° 182° (S) 2,288 5.4 -12.9°
Sets 05:26:32 0° 185° (S) 3,211 6.2 -12.4°
